Location: Winthrop
(48.4780°N, 120.1850°W)
Time: 02:23:47
(UTC-07:00)

Transit 2A - Pass Details

Date: 16 June 2024
Orbit: 591 x 960 km, 66.7° (Epoch: 23 July)

Event Time Altitude Azimuth Distance (km) Brightness Sun altitude
Rises 23:44:02 0° 324° (NW) 3,411 10.8 -16.0°
Reaches altitude 10° 23:47:00 10° 340° (NNW) 2,535 10.1 -16.2°
Maximum altitude 23:51:36 23° 30° (NNE) 1,866 8.5 -16.4°
Drops below altitude 10° 23:56:24 10° 81° (E) 2,664 8.7 -16.7°
Sets 23:59:36 0° 96° (E) 3,631 9.3 -16.8°
